Location: Feigenhofen
(48.4939°N, 10.7793°E)
Time: 15:48:03
(UTC+00:00)

USA 267 - Pass Details

Date: 26 May 2022
Orbit: 1101 x 1106 km, 123.0° (Epoch: 28 June)

Event Time Altitude Azimuth Distance (km) Brightness Sun altitude
Exits shadow 01:02:07 21° 229° (SW) 2,249 4.3 -16.3°
Maximum altitude 01:02:43 21° 236° (SW) 2,237 4.4 -16.3°
Drops below altitude 10° 01:07:29 10° 283° (WNW) 2,963 5.4 -15.9°
Sets 01:10:42 0° 299° (WNW) 3,925 6.2 -15.7°
